Weather History for Belfast Harbour, United Kingdom

Change the Weather History Date:

Thursday, August 15, 2013

  Actual Average Record
Temperature  
Mean Temperature 64 °F -  
Max Temperature 68 °F 62 °F 75 °F (1996)
Min Temperature 60 °F 52 °F 46 °F (2003)
Degree Days  
Heating Degree Days 1    
Growing Degree Days 14 (Base 50)    
Moisture  
Dew Point 61 °F    
Average Humidity 87    
Maximum Humidity 94    
Minimum Humidity 73    
Precipitation  
Precipitation 0.00 in - - ()
Sea Level Pressure  
Sea Level Pressure 29.81 in    
Wind  
Wind Speed 10 mph ()    
Max Wind Speed 17 mph    
Max Gust Speed -    
Visibility 6.0 miles    
Events Rain    
Averages and records for this station are not official NWS values.
T = Trace of Precipitation, MM = Missing Value Source: Averaged Metar Reports

Daily Weather History Graph

Daily Weather History Graph

Search for Another Location

Airport:

Trip Planner

Search our weather history database for the weather conditions in past years. The results will help you decide how hot, cold, wet, or windy it might be!

Date:

Astronomy

Aug. 15, 2013 Rise Set
Actual Time 5:59 AM IST 8:55 PM IST
Civil Twilight 5:18 AM IST 9:36 PM IST
Nautical Twilight 4:23 AM IST 10:30 PM IST
Astronomical Twilight 3:10 AM IST 11:41 PM IST
Moon 4:14 PM IST (8/15) No Moon Set
Length of Visible Light 16h 18m
Length of Day
14h 55m
First Quarter, 61% of the Moon is Illuminated
Aug 15
First Quarter
Aug 21
Full
Aug 28
Last Quarter
Sep 5
New
Sep 12
First Quarter

Hourly Weather History & Observations

Time (IST) Temp. Dew Point Humidity Pressure Visibility Wind Dir Wind Speed Gust Speed Precip Events Conditions
6:20 AM 60.8 °F 59.0 °F 94% 29.86 in 6.2 mi SSW 10.4 mph - N/A Rain Light Rain
6:50 AM 60.8 °F 59.0 °F 94% 29.86 in 6.2 mi SSW 10.4 mph - N/A Rain Light Rain
7:20 AM 60.8 °F 59.0 °F 94% 29.86 in 6.2 mi SSW 10.4 mph - N/A Rain Light Rain
7:50 AM 60.8 °F 59.0 °F 94% 29.86 in 6.2 mi SSW 13.8 mph - N/A Rain Light Rain
8:20 AM 62.6 °F 59.0 °F 88% 29.86 in 6.2 mi SSW 12.7 mph - N/A Rain Light Rain
8:50 AM 62.6 °F 59.0 °F 88% 29.86 in 6.2 mi SW 10.4 mph - N/A   Scattered Clouds
9:20 AM 64.4 °F 60.8 °F 88% 29.86 in 6.2 mi SSW 13.8 mph - N/A   Scattered Clouds
9:50 AM 64.4 °F 60.8 °F 88% 29.86 in 6.2 mi SSW 16.1 mph - N/A   Mostly Cloudy
10:20 AM 66.2 °F 60.8 °F 83% 29.83 in 6.2 mi SW 17.3 mph - N/A   Scattered Clouds
10:50 AM 66.2 °F 59.0 °F 78% 29.83 in 6.2 mi SW 15.0 mph - N/A   Scattered Clouds
11:20 AM 68.0 °F 60.8 °F 78% 29.83 in 6.2 mi SW 12.7 mph - N/A   Scattered Clouds
11:50 AM 68.0 °F 60.8 °F 78% 29.83 in 6.2 mi SW 13.8 mph - N/A   Mostly Cloudy
12:20 PM 68.0 °F 60.8 °F 78% 29.83 in 6.2 mi SW 12.7 mph - N/A   Mostly Cloudy
12:50 PM 68.0 °F 60.8 °F 78% 29.83 in 6.2 mi SW 12.7 mph - N/A   Mostly Cloudy
1:20 PM 68.0 °F 60.8 °F 78% 29.83 in 6.2 mi SSW 13.8 mph - N/A   Mostly Cloudy
1:50 PM 68.0 °F 59.0 °F 73% 29.83 in 6.2 mi SW 10.4 mph - N/A   Mostly Cloudy
2:20 PM 66.2 °F 60.8 °F 83% 29.83 in 6.2 mi SSW 15.0 mph - N/A Rain Light Rain Showers
2:50 PM 62.6 °F 60.8 °F 94% 29.83 in 4.3 mi SSW 13.8 mph - N/A Rain Rain
3:20 PM 62.6 °F 60.8 °F 94% 29.83 in 5.0 mi South 9.2 mph - N/A Rain Rain
3:50 PM 62.6 °F 60.8 °F 94% 29.80 in 5.0 mi South 8.1 mph - N/A Rain Rain
4:20 PM 64.4 °F 62.6 °F 94% 29.80 in 5.0 mi South 8.1 mph - N/A Rain Rain
4:50 PM 64.4 °F 62.6 °F 94% 29.77 in 6.2 mi SSE 9.2 mph - N/A   Mostly Cloudy
5:20 PM 66.2 °F 62.6 °F 88% 29.77 in 6.2 mi South 9.2 mph - N/A Rain Light Rain
5:50 PM 66.2 °F 62.6 °F 88% 29.77 in 6.2 mi South 12.7 mph - N/A   Mostly Cloudy
6:20 PM 68.0 °F 62.6 °F 83% 29.74 in 6.2 mi South 13.8 mph - N/A   Scattered Clouds
6:50 PM 68.0 °F 62.6 °F 83% 29.74 in 6.2 mi SSW 9.2 mph - N/A   Scattered Clouds
7:20 PM 68.0 °F 60.8 °F 78% 29.74 in 6.2 mi SSE 8.1 mph - N/A   Scattered Clouds
7:50 PM 66.2 °F 62.6 °F 88% 29.74 in 6.2 mi SE 8.1 mph - N/A   Mostly Cloudy
8:20 PM 64.4 °F 60.8 °F 88% 29.74 in 6.2 mi SE 6.9 mph - N/A   Mostly Cloudy
8:50 PM 62.6 °F 60.8 °F 94% 29.74 in 6.2 mi SSE 8.1 mph - N/A Rain Light Rain Showers
9:20 PM 62.6 °F 60.8 °F 94% 29.74 in 6.2 mi South 4.6 mph - N/A Rain Light Rain Showers